User: anonymous   Login
Location: Unspecified
(0.0000°N, 0.0000°E)
Time: 00:25:35
(UTC+00:00)
Language:

Kosmos-2218 - Orbit

View from above orbital plane
View from above orbital plane
View from above satellite
View from above satellite

Ground track
Ground track

The orbit data is extracted from the following two-line orbital elements,

1 22207U 92073A   18168.42686681 +.00000013 +00000-0 -25431-5 0  9994
2 22207 082.9203 138.8741 0032129 196.9132 274.2762 13.72867662284023
Epoch (UTC): 17 June 2018 10:14:41
Eccentricity: 0.0032129
inclination: 82.9203°
perigee height: 965 km
apogee height: 1013 km
right ascension of ascending node: 138.8741°
argument of perigee: 196.9132°
revolutions per day: 13.72867662
mean anomaly at epoch: 274.2762°
orbit number at epoch: 28402

The dashed part of the orbit path shows where the satellite is in the earth's shadow,  

DLR